Location: Newark
(49.1000°N, 0.4667°W)
Time: 10:45:24
(UTC+00:00)

BEESAT 3 - Pass Details

Date: 05 July 2020
Orbit: 482 x 522 km, 64.9° (Epoch: 10 August)

Event Time Altitude Azimuth Distance (km) Brightness Sun altitude
Rises 22:10:21 0° 232° (SW) 2,635 ? -13.7°
Reaches altitude 10° 22:12:34 10° 238° (WSW) 1,754 ? -13.9°
Maximum altitude 22:16:23 50° 314° (NW) 674 ? -14.1°
Drops below altitude 10° 22:20:16 10° 31° (NNE) 1,769 ? -14.4°
Sets 22:22:30 0° 37° (NE) 2,660 ? -14.6°
